Terminal Aerodrome Forecast
Issued by NWS Tulsa, OK

Home | Current Version | Previous Version | Text Only | Print | Product List | Glossary On
Versions: 1 2 3 4 5 6 7 8 9 10 11 12 13 14 15 16 17 18 19
000
FTUS44 KTSA 012300
TAFFSM
TAF
KFSM 012320Z 0200/0224 19013G20KT P6SM SKC
     FM020200 12005KT P6SM BKN250 PROB30 0209/0215 6SM -TSRA
      BKN040CB
     FM021500 21006KT P6SM BKN080=

USA.gov is the U.S. government's official web portal to all federal, state and local government web resources and services.